Location: Cuiabá
(15.6014°S, 56.0979°W)
Time: 02:10:07
(UTC-04:00)

Hubble Space Telescope - Pass Details

Date: 30 November 2022
Orbit: 529 x 532 km, 28.5° (Epoch: 28 January)

Event Time Altitude Azimuth Distance (km) Brightness Sun altitude
Exits shadow 04:07:44 21° 290° (WNW) 1,227 2.0 -13.1°
Maximum altitude 04:09:27 28° 330° (NNW) 1,002 1.7 -12.7°
Drops below altitude 10° 04:12:58 10° 30° (NNE) 1,759 3.4 -11.9°
Sets 04:15:26 0° 42° (NE) 2,643 4.5 -11.4°
